Current weather by "City, St" or "zip code"  
 
Advertise Here

Current Conditions: Butler, Butler County Airport/K W Scholter Field, PA

Overcast


29.0 F

Last Updated on Jan 27 2021, 2:56 pm EST
Humidity: 72%
Wind Speed: 5.8 mph
Barometer 30.15 in
Dewpoint: 21.0 F
Visibility: 10.00 mi
Precip: --
Heat Index: NA
Wind Chill: 23 F
Current conditions at:

Butler, Butler County Airport/K W Scholter Field, PA (KBTP)

Lat: 40.78333 Lon: 79.95

Local Radar Image active severe weather and emergency alerts image image weather storm and storm spotter reports image weather observation monitoring service image
Local
Radar
Active
Alerts
Storm Reports Obs
Monitoring

Sign-up For Email & Text Message Weather Alert Notification Services


Advertise Here

Observation History for Butler, Butler County Airport/K W Scholter Field, PA


Time Wind
(mph)
Vis
(mi)
Weather Precip (in) Temperature (F) Relative
Humidity
Wind
Chill
(F)
Heat
Index
(F)
Pressure
Air Dwpt altimeter
(in)
sea level
(mb)
Rmks
2:56 pm EST 5.8 10.00 Overcast -- 29.0 21.0 72% 23 NA 30.15 1023.2
1:56 pm EST NW 4.6 10.00 Overcast Trace 29.0 21.0 72% 24 NA 30.15 1023.1
12:56 pm EST 3.5 10.00 Overcast -- 29.0 21.0 72% NA NA 30.17 1023.7
11:56 am EST 5.8 10.00 Overcast -- 29.0 21.0 72% 23 NA 30.19 1024.2
10:56 am EST 3.5 10.00 Overcast -- 28.0 21.0 75% NA NA 30.19 1024.2
9:56 am EST 3.5 10.00 Overcast -- 26.0 21.0 81% NA NA 30.18 1023.9
8:56 am EST 6.9 10.00 Overcast -- 26.0 19.9 78% 18 NA 30.14 1022.7
7:56 am EST N 0.0 10.00 Overcast -- 27.0 21.0 78% NA NA 30.16 1023.2
6:56 am EST NW 6.9 10.00 Overcast -- 28.0 21.9 78% 21 NA 30.13 1022.0
5:56 am EST 5.8 10.00 Overcast -- 28.0 23.0 81% 22 NA 30.10 1021.3
4:56 am EST NW 5.8 10.00 Overcast -- 29.0 25.0 85% 23 NA 30.09 1020.7
3:56 am EST NW 8.1 10.00 Overcast -- 29.0 26.1 89% 21 NA 30.06 1019.6
2:56 am EST W 10.4 G 16.1 10.00 Overcast -- 30.0 26.1 85% 21 NA 30.03 1018.6
1:56 am EST W 9.2 G 19.6 10.00 Overcast -- 30.0 27.0 88% 22 NA 29.99 1017.4
12:56 am EST W 10.4 G 17.3 10.00 Overcast -- 32.0 28.0 85% 24 NA 29.95 1015.9
11:56 pm EST W 9.2 10.00 Overcast -- 32.0 27.0 82% 24 NA 29.92 1015.0
10:56 pm EST W 11.5 G 17.3 10.00 Overcast -- 33.0 28.9 85% 24 NA 29.90 1014.2
9:56 pm EST W 8.1 G 17.3 10.00 Overcast -- 35.0 30.0 82% 28 NA 29.88 1013.5
8:56 pm EST W 11.5 G 19.6 10.00 Overcast Trace 36.0 30.9 82% 28 NA 29.85 1012.7
7:56 pm EST W 17.3 G 23.0 10.00 Light Rain 00.01 37.0 34.0 89% 27 NA 29.83 1011.6
6:56 pm EST W 12.7 G 17.3 10.00 Light Rain Trace 38.0 35.1 89% 30 NA 29.80 1010.7
5:56 pm EST W 15.0 G 23.0 10.00 Overcast -- 39.0 36.0 89% 31 NA 29.77 1009.9
4:56 pm EST SW 13.8 G 21.9 10.00 Overcast 00.02 38.0 36.0 93% 30 NA 29.75 1009.1
3:56 pm EST SW 13.8 G 23.0 10.00 Light Rain Trace 39.0 37.0 93% 31 NA 29.73 1008.4

Regional Weather Observation


New Castle, New Castle Municipal Airport, PA (KUCP)

Overcast
30.0 F

Beaver County Airport, PA (KBVI)

Overcast
31.0 F

Butler, Butler County Airport/K W Scholter Field, PA (KBTP)

Overcast
29.0 F

Youngstown, Youngstown-Warren Regional Airport, OH (KYNG)

Overcast
31.0 F

Pittsburgh, Pittsburgh International Airport, PA (KPIT)

Overcast
30.0 F

Franklin, Venango Regional Airport, PA (KFKL)

Mostly Cloudy
28.0 F